Simultaneous Nadir Overpasses (SNOs) Predictions

Prediction of SNOs between AQUA and METOP-B Satellite Orbit:

Table of predicted SNOs for the next 14.0 days since TLE Epoch: 2/18/2017
Index Date (AQUA) Time (AQUA) Lat,Lon (AQUA) SZA (AQUA ) Date (METOP-B) Time (METOP-B) Lat,Lon (METOP-B) SZA (METOP-B ) Distance(km) Time Diff (sec)
1 02/20/2017 16:07:44 -73.11, 113.71 96.16 02/20/2017 16:06:37 -73.05, 111.22 96.08 80.85 67
2 02/20/2017 16:57:23 73.69, -79.89 84.47 02/20/2017 16:57:04 73.71, -79.98 84.49 3.23 19
3 02/20/2017 17:46:50 -73.78, 87.57 95.46 02/20/2017 17:47:44 -73.78, 87.52 95.46 1.69 54
4 02/23/2017 11:42:04 -73.33, 179.69 96.95 02/23/2017 11:40:54 -73.29, 178.13 96.90 50.00 70
5 02/23/2017 12:31:39 73.71, -13.49 83.46 02/23/2017 12:31:25 73.74, -13.50 83.49 3.26 14
6 02/23/2017 13:21:06 -73.79, 153.99 96.48 02/23/2017 13:22:05 -73.82, 154.01 96.46 3.06 59
7 02/26/2017 07:16:25 -73.55,-114.35 97.75 02/26/2017 07:15:13 -73.47,-115.05 97.79 24.07 72
8 02/26/2017 08:05:56 73.74, 52.89 82.44 02/26/2017 08:05:48 73.72, 52.86 82.42 2.11 8
9 02/26/2017 08:55:23 -73.81,-139.62 97.51 02/26/2017 08:56:28 -73.80,-139.63 97.53 1.18 65
10 03/01/2017 02:50:44 -73.69, -48.19 98.68 03/01/2017 02:49:31 -73.70, -48.12 98.65 2.88 73
11 03/01/2017 03:40:13 73.77, 119.26 81.40 03/01/2017 03:40:10 73.75, 119.33 81.38 3.30 3
12 03/01/2017 04:29:40 -73.84, -73.24 98.54 03/01/2017 04:30:50 -73.83, -73.15 98.57 2.97 70
13 03/03/2017 22:24:59 -73.67, 18.28 99.78 03/03/2017 22:23:53 -73.68, 18.24 99.75 1.55 66
14 03/03/2017 23:14:28 73.76,-174.28 80.31 03/03/2017 23:14:31 73.77,-174.20 80.32 2.90 3




NCC Satellite Simultaneous Nadir Overpasses (SNOs) Prediction Service
